When you browse on this site, cookies collect data to enhance your experience and personalize the content and advertising you see.
Visit our Privacy Policy to learn more. By continuing to use the site, you agree to this use of cookies and data.
  • Em Portugal
  • Lista de países
  • Para 7 dias
  • Temperatura da água
  • Mapa do tempo
  • Widgets de tempo
  • user-avatar
    Iniciar Sessão

    Previsão horária em Ventyan

    Hoje, 8 Abril, Quarta-feira

    Tempo Temperatura Precipitação Vento Pressão Humidade
    00:00 +29°C° 0.1 mm 2 m/s 743 mmHg 74%
    01:00 +28°C° 0 mm 2 m/s 743 mmHg 76%
    02:00 +28°C° 0 mm 2 m/s 743 mmHg 76%
    03:00 +27°C° 0 mm 2 m/s 743 mmHg 77%
    04:00 +27°C° 0 mm 2 m/s 743 mmHg 78%
    05:00 +27°C° 0 mm 2 m/s 743 mmHg 77%
    06:00 +27°C° 0 mm 2 m/s 744 mmHg 76%
    07:00 +27°C° 0 mm 2 m/s 745 mmHg 78%
    08:00 +29°C° 0 mm 2 m/s 745 mmHg 70%
    09:00 +30°C° 0 mm 2 m/s 745 mmHg 63%
    10:00 +33°C° 0 mm 3 m/s 746 mmHg 56%
    11:00 +34°C° 0 mm 2 m/s 745 mmHg 51%
    12:00 +36°C° 0 mm 2 m/s 744 mmHg 46%
    13:00 +37°C° 0 mm 2 m/s 744 mmHg 42%
    14:00 +37°C° 0 mm 2 m/s 743 mmHg 40%
    15:00 +38°C° 0 mm 2 m/s 742 mmHg 38%
    16:00 +37°C° 0 mm 1 m/s 742 mmHg 36%
    17:00 +37°C° 0 mm 2 m/s 742 mmHg 40%
    18:00 +35°C° 0 mm 2 m/s 743 mmHg 43%
    19:00 +34°C° 0 mm 2 m/s 743 mmHg 47%
    20:00 +32°C° 0.1 mm 2 m/s 744 mmHg 51%
    21:00 +31°C° 0.1 mm 2 m/s 744 mmHg 55%
    22:00 +31°C° 0.1 mm 2 m/s 745 mmHg 58%
    23:00 +30°C° 0.1 mm 2 m/s 745 mmHg 61%

    Amanhã, 9 Abril, Quinta-feira

    Tempo Temperatura Precipitação Vento Pressão Humidade
    00:00 +30°C° 0.1 mm 2 m/s 744 mmHg 63%
    01:00 +29°C° 0.1 mm 2 m/s 744 mmHg 66%
    02:00 +29°C° 0 mm 2 m/s 744 mmHg 68%
    03:00 +28°C° 0 mm 2 m/s 744 mmHg 70%
    04:00 +28°C° 0 mm 2 m/s 744 mmHg 73%
    05:00 +27°C° 0.1 mm 2 m/s 744 mmHg 72%
    06:00 +27°C° 0.1 mm 2 m/s 745 mmHg 72%
    07:00 +27°C° 0.1 mm 3 m/s 745 mmHg 72%
    08:00 +29°C° 0.9 mm 3 m/s 746 mmHg 67%
    09:00 +30°C° 0.9 mm 3 m/s 746 mmHg 63%
    10:00 +31°C° 0.9 mm 3 m/s 746 mmHg 58%
    11:00 +34°C° 0.2 mm 3 m/s 746 mmHg 54%
    12:00 +35°C° 0.2 mm 3 m/s 745 mmHg 49%
    13:00 +36°C° 0.2 mm 3 m/s 745 mmHg 45%
    14:00 +36°C° 0.1 mm 3 m/s 744 mmHg 43%
    15:00 +37°C° 0.1 mm 2 m/s 743 mmHg 42%
    16:00 +37°C° 0.1 mm 2 m/s 743 mmHg 40%
    17:00 +36°C° 0 mm 2 m/s 743 mmHg 44%
    18:00 +35°C° 0 mm 2 m/s 744 mmHg 48%
    19:00 +32°C° 0 mm 2 m/s 744 mmHg 52%
    20:00 +32°C° 0 mm 2 m/s 745 mmHg 55%
    21:00 +31°C° 0 mm 1 m/s 746 mmHg 58%
    22:00 +30°C° 0 mm 1 m/s 746 mmHg 61%
    23:00 +30°C° 0 mm 1 m/s 746 mmHg 64%

    Depois de amanhã, 10 Abril, Sexta-feira

    Tempo Temperatura Precipitação Vento Pressão Humidade
    00:00 +29°C° 0 mm 1 m/s 745 mmHg 66%
    01:00 +29°C° 0 mm 1 m/s 745 mmHg 68%
    02:00 +28°C° 0 mm 1 m/s 745 mmHg 70%
    03:00 +28°C° 0 mm 2 m/s 745 mmHg 71%
    04:00 +28°C° 0 mm 2 m/s 744 mmHg 72%
    05:00 +28°C° 0 mm 2 m/s 745 mmHg 72%
    06:00 +28°C° 0 mm 1 m/s 746 mmHg 73%
    07:00 +28°C° 0 mm 1 m/s 746 mmHg 73%
    08:00 +30°C° 0.1 mm 1 m/s 746 mmHg 66%
    09:00 +31°C° 0.1 mm 2 m/s 747 mmHg 59%
    10:00 +34°C° 0.1 mm 2 m/s 747 mmHg 51%
    11:00 +35°C° 0.1 mm 2 m/s 746 mmHg 48%
    12:00 +36°C° 0.1 mm 2 m/s 745 mmHg 44%
    13:00 +38°C° 0.1 mm 2 m/s 745 mmHg 41%
    14:00 +38°C° 0 mm 2 m/s 744 mmHg 39%
    15:00 +37°C° 0 mm 1 m/s 744 mmHg 38%
    16:00 +37°C° 0 mm 1 m/s 743 mmHg 37%
    17:00 +36°C° 0 mm 1 m/s 743 mmHg 41%
    18:00 +35°C° 0 mm 1 m/s 744 mmHg 44%
    19:00 +33°C° 0 mm 1 m/s 744 mmHg 47%
    20:00 +33°C° 0.1 mm 1 m/s 745 mmHg 50%
    21:00 +32°C° 0.1 mm 1 m/s 745 mmHg 53%
    22:00 +31°C° 0.1 mm 1 m/s 745 mmHg 56%
    23:00 +31°C° 0 mm 1 m/s 745 mmHg 58%

    11 Abril, Sábado

    Tempo Temperatura Precipitação Vento Pressão Humidade
    00:00 +30°C° 0 mm 1 m/s 745 mmHg 59%
    01:00 +30°C° 0 mm 1 m/s 744 mmHg 61%
    02:00 +29°C° 0 mm 1 m/s 744 mmHg 63%
    03:00 +29°C° 0 mm 1 m/s 744 mmHg 66%
    04:00 +28°C° 0 mm 1 m/s 744 mmHg 68%
    05:00 +28°C° 0 mm 1 m/s 744 mmHg 68%
    06:00 +29°C° 0 mm 1 m/s 745 mmHg 68%
    07:00 +29°C° 0 mm 1 m/s 745 mmHg 69%
    08:00 +31°C° 0 mm 1 m/s 746 mmHg 61%
    09:00 +33°C° 0 mm 1 m/s 746 mmHg 53%
    10:00 +36°C° 0 mm 1 m/s 746 mmHg 45%
    11:00 +37°C° 0 mm 1 m/s 745 mmHg 40%
    12:00 +39°C° 0 mm 1 m/s 744 mmHg 36%
    13:00 +41°C° 0 mm 1 m/s 743 mmHg 32%
    14:00 +41°C° 0 mm 1 m/s 743 mmHg 31%
    15:00 +41°C° 0 mm 1 m/s 742 mmHg 30%
    16:00 +40°C° 0 mm 1 m/s 741 mmHg 29%
    17:00 +39°C° 0 mm 1 m/s 742 mmHg 32%
    18:00 +37°C° 0 mm 1 m/s 742 mmHg 34%
    19:00 +35°C° 0 mm 1 m/s 742 mmHg 37%
    20:00 +34°C° 0 mm 1 m/s 743 mmHg 38%
    21:00 +34°C° 0 mm 1 m/s 743 mmHg 40%
    22:00 +33°C° 0 mm 1 m/s 744 mmHg 41%
    23:00 +33°C° 0 mm 1 m/s 743 mmHg 43%

    12 Abril, Domingo

    Tempo Temperatura Precipitação Vento Pressão Humidade
    00:00 +32°C° 0 mm 1 m/s 743 mmHg 46%
    01:00 +31°C° 0 mm 1 m/s 743 mmHg 49%
    02:00 +31°C° 0 mm 1 m/s 743 mmHg 51%
    03:00 +30°C° 0 mm 1 m/s 742 mmHg 53%
    04:00 +30°C° 0 mm 1 m/s 742 mmHg 56%
    05:00 +30°C° 0 mm 2 m/s 743 mmHg 57%
    06:00 +30°C° 0 mm 2 m/s 743 mmHg 58%
    07:00 +30°C° 0 mm 2 m/s 744 mmHg 59%
    08:00 +32°C° 0.2 mm 2 m/s 744 mmHg 54%
    09:00 +35°C° 0.2 mm 3 m/s 744 mmHg 49%
    10:00 +37°C° 0.2 mm 3 m/s 745 mmHg 45%
    11:00 +38°C° 0 mm 3 m/s 744 mmHg 41%
    12:00 +39°C° 0 mm 2 m/s 743 mmHg 37%
    13:00 +41°C° 0 mm 2 m/s 743 mmHg 32%
    14:00 +39°C° 0.1 mm 3 m/s 742 mmHg 35%
    15:00 +38°C° 0.1 mm 3 m/s 742 mmHg 38%
    16:00 +37°C° 0.1 mm 4 m/s 741 mmHg 41%
    17:00 +35°C° 0.4 mm 5 m/s 742 mmHg 50%
    18:00 +33°C° 0.4 mm 5 m/s 742 mmHg 59%
    19:00 +29°C° 0.4 mm 6 m/s 743 mmHg 68%
    20:00 +28°C° 1.2 mm 6 m/s 744 mmHg 70%
    21:00 +28°C° 1.2 mm 5 m/s 745 mmHg 72%
    22:00 +27°C° 1.2 mm 5 m/s 746 mmHg 74%
    23:00 +26°C° 0.6 mm 4 m/s 746 mmHg 74%

    13 Abril, Segunda-feira

    Tempo Temperatura Precipitação Vento Pressão Humidade
    00:00 +26°C° 0.6 mm 4 m/s 745 mmHg 75%
    01:00 +25°C° 0.6 mm 3 m/s 745 mmHg 75%
    02:00 +25°C° 0.1 mm 2 m/s 745 mmHg 76%
    03:00 +25°C° 0.1 mm 2 m/s 745 mmHg 77%
    04:00 +25°C° 0.1 mm 1 m/s 745 mmHg 78%
    05:00 +25°C° 0 mm 1 m/s 745 mmHg 77%
    06:00 +25°C° 0 mm 1 m/s 746 mmHg 75%
    07:00 +25°C° 0 mm 1 m/s 746 mmHg 73%
    08:00 +26°C° 0 mm 2 m/s 746 mmHg 67%
    09:00 +28°C° 0 mm 2 m/s 747 mmHg 61%
    10:00 +29°C° 0 mm 2 m/s 747 mmHg 54%
    11:00 +31°C° 0 mm 2 m/s 746 mmHg 50%
    12:00 +32°C° 0 mm 2 m/s 746 mmHg 46%
    13:00 +34°C° 0 mm 2 m/s 745 mmHg 41%
    14:00 +35°C° 0 mm 3 m/s 745 mmHg 40%
    15:00 +35°C° 0 mm 3 m/s 744 mmHg 39%
    16:00 +35°C° 0 mm 3 m/s 743 mmHg 39%
    17:00 +34°C° 0 mm 2 m/s 743 mmHg 42%
    18:00 +32°C° 0 mm 2 m/s 743 mmHg 46%
    19:00 +31°C° 0 mm 2 m/s 744 mmHg 49%
    20:00 +30°C° 0 mm 2 m/s 744 mmHg 51%
    21:00 +29°C° 0 mm 2 m/s 745 mmHg 52%
    22:00 +29°C° 0 mm 2 m/s 746 mmHg 54%
    23:00 +28°C° 0 mm 2 m/s 745 mmHg 55%
    Mostrar mais